Location: Unspecified
(0.0000°N, 0.0000°E)
Time: 04:52:57
(UTC+00:00)

Kosmos-2184 - Visible Passes

Search period start: 03 June 2023 00:00
Search period end: 13 June 2023 00:00
Orbit: 963 x 1012 km, 82.9° (Epoch: 02 June)

Date Brightness Start Highest point End Pass type
(mag) Time Alt. Az. Time Alt. Az. Time Alt. Az.
09 Jun 7.4 21:04:04 13° N 21:04:04 13° N 21:04:37 10° N visible
10 Jun 7.5 21:32:15 13° NNW 21:32:15 13° NNW 21:32:56 10° NNW visible
11 Jun 6.8 20:15:30 18° NNE 20:15:30 18° NNE 20:17:01 10° NNE visible
12 Jun 6.4 20:43:32 29° N 20:43:32 29° N 20:46:23 10° N visible
